Location: Bremen
(53.0793°N, 8.8017°E)
Time: 17:20:12
(UTC+02:00)

SR - Pass Details

Date: 16 April 2024
Orbit: 579 x 859 km, 66.7° (Epoch: 26 May)

Event Time Altitude Azimuth Distance (km) Brightness Sun altitude
Exits shadow 05:18:46 12° 233° (SW) 2,224 ? -9.5°
Maximum altitude 05:23:47 65° 314° (NW) 835 ? -8.9°
Drops below altitude 10° 05:28:48 10° 37° (NE) 2,201 ? -8.2°
Sets 05:31:05 0° 40° (NE) 3,078 ? -7.9°
